Regional Weather Roundup
Issued by NWS

Home | Current Version | Previous Version | Graphics & Text | Print | Product List | Glossary Off
Versions: 1 2 3 4 5 6 7 8 9 10 11 12 13 14 15 16 17 18 19 20 21 22 23 24 25 26 27 28 29 30 31 32 33 34 35 36 37 38 39 40 41 42 43 44 45 46 47 48 49 50

000
ASUS43 KDTX 250901
RWRMI
MICHIGAN HOURLY REGIONAL WEATHER ROUNDUP
NATIONAL WEATHER SERVICE DETROIT/PONTIAC MI
500 AM EDT FRI MAY 25 2018

NOTE: "FAIR" INDICATES FEW OR NO CLOUDS BELOW 12,000 FEET WITH NO
SIGNIFICANT WEATHER AND/OR OBSTRUCTION TO VISIBILITY.

MIZ047>049-052>055-059>063-066>070-074>076-081>083-251000-
SOUTHEAST LOWER MICHIGAN

CITY           SKY/WX    TMP DP  RH WIND       PRES   REMARKS
ADRIAN         FAIR      55  53  93 CALM      30.05F
ALMA           FAIR      60  54  79 S6        30.00F
ANN ARBOR      FAIR      50  50 100 CALM      30.03F FOG
BAD AXE        FAIR      60  50  69 SW6       30.00S
CARO           FAIR      54  49  83 SW3       30.00F
DETROIT CITY   FAIR      63  51  65 W5        30.02F
DETROIT        FAIR      59  51  75 S5        30.03F
FLINT          FAIR      61  50  67 S5        30.01F
GROSSE ILE     FAIR      57  55  91 CALM      30.02F
HILLSDALE      FAIR      59  46  63 S5        30.03F
HOWELL         FAIR      60  51  70 S3        30.02F

CITY           SKY/WX    TMP DP  RH WIND       PRES   REMARKS
JACKSON        FAIR      56  52  86 CALM      30.02F
LAMBERTVILLE   FAIR      56  51  84 CALM      30.03F
LANSING        FAIR      61  50  67 S3        30.02F
LAPEER         FAIR      51  51  97 CALM      30.02F
MASON          FAIR      61  49  65 S3        30.03S
MONROE         FAIR      54  52  93 N5        30.03F
MT. CLEMENS    FAIR      61  54  79 SW6         N/A
PONTIAC        FAIR      57  52  83 CALM      30.02F
PORT HOPE        N/A     66  51  58 SW5       29.96F
PORT HURON     FAIR      52  48  87 CALM      30.02F
TRI CITIES     FAIR      64  51  62 S7        29.99F
MIDLAND        FAIR      55  55 100 CALM      29.98F
TROY           FAIR      63  50  62 CALM      30.04F
SAGINAW HB     FAIR      61  50  67 S3        29.99F
$$
MIZ043>046-050>051-056>058-064>065-071>073-077>080-251000-
SOUTHWEST LOWER MICHIGAN

CITY           SKY/WX    TMP DP  RH WIND       PRES   REMARKS
BATTLE CREEK   FAIR      61  50  67 CALM      30.02F
BENTON HARBOR  FAIR      59  52  77 SE3       30.00F
BIG RAPIDS     FAIR      56  54  93 SE3       29.98F
COLDWATER      FAIR      59  51  76 CALM      30.03F
HOLLAND        FAIR      62  51  67 S5        29.99F
GRAND RAPIDS   FAIR      61  52  72 S6        30.00F
IONIA          FAIR      63  49  61 SW7       30.00F
KALAMAZOO      FAIR      60  52  74 S3        30.02F
LUDINGTON      FAIR      70  47  44 SW13G22   29.95S
MARSHALL       FAIR      56  50  80 CALM      30.02F
MOUNT PLEASANT FAIR      64  56  73 SW5       29.98S
MUSKEGON       FAIR      71  47  42 S10       29.98F
SOUTH HAVEN    FAIR      62  51  67 CALM      30.00F
$$
MIZ016>042-251000-
NORTHERN LOWER MICHIGAN

CITY           SKY/WX    TMP DP  RH WIND       PRES   REMARKS
ALPENA         FAIR      65  53  65 SW7       29.92F
BEAVER ISLAND  FAIR      58  47  67 SW13G18   29.90F
BELLAIRE       FAIR      58  53  85 CALM      29.93F
CADILLAC       FAIR      55  52  88 SW3       29.97F
CHARLEVOIX     FAIR      55  46  69 W8        29.96S
FRANKFORT      FAIR      68  51  54 S12       29.93F
GAYLORD        FAIR      64  50  60 SW9       29.95F
GRAYLING       FAIR      65  51  61 SW6       29.95S
HARBOR SPRINGS FAIR      52  46  80 SW7       29.92F
HOUGHTON LAKE  FAIR      63  53  70 SW6       29.98S
MANISTEE       FAIR      54  52  93 E5        29.94F
OSCODA         FAIR      62  52  70 SW9       29.94F
PELLSTON       FAIR      64  50  60 CALM      29.91F
ROGERS CITY    FAIR      66  51  58 SW8       29.91F
TRAVERSE CITY  FAIR      70  51  51 SW6       29.91F
$$
MIZ007>008-015-251000-
EASTERN UPPER MICHIGAN

CITY           SKY/WX    TMP DP  RH WIND       PRES   REMARKS
KINROSS        FAIR      59  51  75 SW7       29.89F
MACKINAC ISLAN FAIR      57  47  68 S10G16    29.90F
NEWBERRY       MOCLDY    58  51  76 S10       29.86F
S. S. MARIE    FAIR      58  56  93 CALM      29.89R
MUNISING         N/A     65  65 100 SW9       29.84F
$$
MIZ004>006-011>014-085-251000-
CENTRAL UPPER MICHIGAN

CITY           SKY/WX    TMP DP  RH WIND       PRES   REMARKS
MANISTIQUE     LGT RAIN  54  52  94 SW7       29.87F
ESCANABA       FAIR      63  61  93 CALM      29.87S
MENOMINEE      MOCLDY    64  59  83 CALM      29.89F
$$
MIZ001>003-009>011-084-251000-
WESTERN UPPER MICHIGAN

CITY           SKY/WX    TMP DP  RH WIND       PRES   REMARKS
IRON MOUNTAIN  FAIR      63  62  97 SE5       29.85F
HOUGHTON       FAIR      65  60  84 S5        29.80F
COPPER HARBOR    N/A     62  59  90 SW3       29.79S
IRONWOOD       FAIR      69  58  67 SW8       29.80F
$$

ABBREVIATIONS USED IN REMARKS
   TC - TEMPERATURE IN CELSIUS
  WCI - WIND CHILL INDEX
   HX - HEAT INDEX
  VSB - VISIBILITY





USA.gov is the U.S. government's official web portal to all federal, state and local government web resources and services.